CSZ9112 ZJHK-ZLXY

Flight info

Callsign CSZ9112
Flight time N/A
Altitude 38100
Route AGTEL W71 LH R339 BHY W159 IVPUB/K0882S1130 W120 ENKUS R343 MAMSI/K0893S1160 B330 SJG/K0885S1130 W102 ZHJ/K0889S1160 W102 ENH/K0889S1130 W102 EMVIL/K0891S1160 DCT NSH
Aircraft A339/H-SADE1E2E3GHIJ3J5M1P2RWXY/LB2D1

Departure

Time 2026-05-04 07:07
Airport Haikou Meilan International Airport (ZJHK)

Arrival

Time N/A
Airport Xi'an Xianyang International Airport (ZLXY)
Time Latitude Longitude Altitude Speed Heading
2026-05-04 06:34 19.94873 110.45682 80 ft 0 kts 180°
2026-05-04 06:46 19.94880 110.45682 80 ft 2 kts 179°
2026-05-04 06:46 19.94895 110.45682 80 ft 2 kts 180°
2026-05-04 06:46 19.94910 110.45682 80 ft 2 kts 180°
2026-05-04 06:48 19.94965 110.45740 80 ft 0 kts 270°
2026-05-04 07:01 19.94964 110.45671 79 ft 9 kts 269°
2026-05-04 07:01 19.94987 110.45602 78 ft 12 kts 316°
2026-05-04 07:02 19.95052 110.45540 76 ft 10 kts 332°
2026-05-04 07:02 19.95137 110.45533 74 ft 14 kts 359°
2026-05-04 07:02 19.95199 110.45502 73 ft 10 kts 290°
2026-05-04 07:02 19.95203 110.45408 71 ft 14 kts 270°
2026-05-04 07:03 19.95202 110.45283 69 ft 18 kts 270°
2026-05-04 07:03 19.95201 110.45134 67 ft 21 kts 270°
2026-05-04 07:03 19.95201 110.44999 67 ft 18 kts 270°
2026-05-04 07:03 19.95201 110.44867 67 ft 11 kts 272°
2026-05-04 07:04 19.95227 110.44821 67 ft 4 kts 328°
2026-05-04 07:04 19.95248 110.44817 67 ft 0 kts
2026-05-04 07:04 19.95253 110.44817 67 ft 2 kts
2026-05-04 07:05 19.95281 110.44818 67 ft 5 kts
2026-05-04 07:05 19.95326 110.44838 67 ft 8 kts 38°
2026-05-04 07:05 19.95364 110.44883 66 ft 8 kts 70°
2026-05-04 07:05 19.95372 110.44956 66 ft 13 kts 87°
2026-05-04 07:06 19.95375 110.46046 74 ft 128 kts 86°
2026-05-04 07:06 19.95389 110.47163 83 ft 171 kts 84°
2026-05-04 07:06 19.95371 110.48419 602 ft 170 kts 89°
2026-05-04 07:07 19.95484 110.49628 1161 ft 168 kts 60°
2026-05-04 07:08 20.04599 110.46962 4068 ft 254 kts 338°
2026-05-04 07:09 20.06226 110.46240 4752 ft 254 kts 338°
2026-05-04 07:09 20.07866 110.45515 5416 ft 255 kts 337°
2026-05-04 07:09 20.09495 110.44796 6044 ft 256 kts 336°
2026-05-04 07:09 20.11132 110.44074 6603 ft 256 kts 336°
2026-05-04 07:10 20.12787 110.43341 7037 ft 260 kts 336°
2026-05-04 07:10 20.14446 110.42609 7486 ft 263 kts 335°
2026-05-04 07:12 20.26594 110.37358 11080 ft 280 kts 338°
2026-05-04 07:12 20.28513 110.36691 11344 ft 295 kts 339°
2026-05-04 07:12 20.30513 110.36005 11600 ft 309 kts 339°
2026-05-04 07:12 20.32626 110.35283 11857 ft 324 kts 339°
2026-05-04 07:13 20.34823 110.34531 12109 ft 339 kts 339°
2026-05-04 07:13 20.37102 110.33748 12357 ft 353 kts 339°
2026-05-04 07:13 20.39523 110.32918 12604 ft 368 kts 339°
2026-05-04 07:14 20.49892 110.29703 14313 ft 401 kts 348°
2026-05-04 07:14 20.52718 110.29493 14880 ft 406 kts 357°
2026-05-04 07:15 20.55555 110.29610 15433 ft 410 kts
2026-05-04 07:15 20.58395 110.29803 15956 ft 413 kts
2026-05-04 07:15 20.61288 110.30014 16494 ft 415 kts
2026-05-04 07:15 20.64168 110.30217 17013 ft 417 kts 360°
2026-05-04 07:16 20.67069 110.30415 17511 ft 420 kts
2026-05-04 07:16 20.70027 110.30613 17998 ft 424 kts 360°
2026-05-04 07:16 20.72948 110.30807 18455 ft 427 kts 360°
2026-05-04 07:16 20.75952 110.31004 18913 ft 430 kts 360°
2026-05-04 07:17 20.78958 110.31202 19363 ft 433 kts 360°
2026-05-04 07:17 20.81968 110.31400 19795 ft 437 kts 360°
2026-05-04 07:17 20.85007 110.31600 20213 ft 440 kts 360°
2026-05-04 07:17 20.88093 110.31803 20609 ft 443 kts 360°
2026-05-04 07:18 20.91187 110.32007 20992 ft 447 kts 360°
2026-05-04 07:18 20.94316 110.32214 21379 ft 450 kts 360°
2026-05-04 07:18 20.97463 110.32420 21746 ft 453 kts 359°
2026-05-04 07:18 21.00590 110.32619 22100 ft 456 kts 359°
2026-05-04 07:19 21.03804 110.32797 22460 ft 459 kts 359°
2026-05-04 07:19 21.06976 110.32955 22831 ft 461 kts 358°
2026-05-04 07:19 21.10148 110.32597 23137 ft 455 kts 340°
2026-05-04 07:19 21.13012 110.31245 23538 ft 447 kts 323°
2026-05-04 07:20 21.15354 110.29142 23916 ft 441 kts 308°
2026-05-04 07:20 21.17088 110.26432 24248 ft 438 kts 295°
2026-05-04 07:20 21.18492 110.23563 24591 ft 440 kts 295°
2026-05-04 07:20 21.19937 110.20651 24919 ft 443 kts 295°
2026-05-04 07:22 21.30284 110.00024 27185 ft 457 kts 295°
2026-05-04 07:22 21.31807 109.96989 27485 ft 459 kts 295°
2026-05-04 07:23 21.33306 109.94003 27764 ft 461 kts 295°
2026-05-04 07:23 21.34818 109.90983 28043 ft 463 kts 295°
2026-05-04 07:23 21.36340 109.87945 28333 ft 465 kts 295°
2026-05-04 07:23 21.37883 109.84863 28605 ft 467 kts 295°
2026-05-04 07:24 21.39419 109.81792 28868 ft 468 kts 295°
2026-05-04 07:24 21.40943 109.78746 29206 ft 468 kts 295°
2026-05-04 07:24 21.42488 109.75659 29624 ft 467 kts 295°
2026-05-04 07:24 21.44005 109.72623 30046 ft 465 kts 295°
2026-05-04 07:25 21.45532 109.69566 30475 ft 463 kts 295°
2026-05-04 07:26 21.56770 109.49080 33326 ft 458 kts 310°
2026-05-04 07:27 21.59140 109.46797 33753 ft 461 kts 317°
2026-05-04 07:27 21.61774 109.44867 34146 ft 464 kts 324°
2026-05-04 07:27 21.64675 109.43307 34512 ft 469 kts 332°
2026-05-04 07:27 21.67793 109.42171 34875 ft 473 kts 340°
2026-05-04 07:28 21.71011 109.41504 35255 ft 476 kts 346°
2026-05-04 07:28 21.74286 109.41054 35619 ft 475 kts 347°
2026-05-04 07:28 21.77596 109.40642 35972 ft 474 kts 348°
2026-05-04 07:28 21.80893 109.40238 36283 ft 473 kts 348°
2026-05-04 07:29 21.84149 109.39832 36534 ft 472 kts 347°
2026-05-04 07:29 21.87385 109.39422 36741 ft 473 kts 347°
2026-05-04 07:29 21.90667 109.39002 36932 ft 473 kts 347°
2026-05-04 07:29 21.93942 109.38580 37105 ft 474 kts 347°
2026-05-04 07:30 21.97206 109.38158 37305 ft 474 kts 347°
2026-05-04 07:30 22.00497 109.37733 37517 ft 474 kts 347°
2026-05-04 07:30 22.03797 109.37305 37679 ft 475 kts 347°
2026-05-04 07:30 22.07061 109.36883 37819 ft 475 kts 347°
2026-05-04 07:31 22.10379 109.36453 37966 ft 476 kts 347°
2026-05-04 07:31 22.13661 109.36027 38090 ft 477 kts 347°
2026-05-04 07:33 22.37103 109.35883 38099 ft 492 kts
2026-05-04 07:33 22.40496 109.36533 38102 ft 493 kts
2026-05-04 07:33 22.47232 109.37878 38109 ft 493 kts
2026-05-04 07:34 22.54006 109.39226 38118 ft 493 kts
2026-05-04 07:34 22.60744 109.40559 38120 ft 493 kts
2026-05-04 07:35 22.67515 109.41894 38117 ft 493 kts
2026-05-04 07:35 22.74258 109.43223 38112 ft 496 kts
2026-05-04 07:36 22.81059 109.44561 38112 ft 499 kts
2026-05-04 07:38 23.08463 109.49992 38106 ft 500 kts
2026-05-04 07:38 23.15310 109.51354 38119 ft 501 kts
2026-05-04 07:39 23.22160 109.52715 38124 ft 501 kts
2026-05-04 07:39 23.29016 109.54082 38121 ft 501 kts
2026-05-04 07:40 23.35869 109.55449 38121 ft 500 kts
2026-05-04 07:40 23.42731 109.56818 38118 ft 500 kts
2026-05-04 07:41 23.49579 109.58187 38110 ft 499 kts
2026-05-04 07:41 23.56412 109.59554 38109 ft 500 kts
2026-05-04 07:42 23.63246 109.60924 38112 ft 501 kts
2026-05-04 07:42 23.70133 109.62302 38110 ft 501 kts
2026-05-04 07:43 23.76951 109.63664 38123 ft 501 kts
2026-05-04 07:43 23.83856 109.65047 38116 ft 501 kts
2026-05-04 07:44 23.90682 109.66416 38113 ft 501 kts
2026-05-04 07:44 23.97563 109.67801 38110 ft 501 kts
2026-05-04 07:45 24.04431 109.69185 38110 ft 501 kts
2026-05-04 07:45 24.11308 109.70569 38114 ft 502 kts
2026-05-04 07:46 24.18170 109.71953 38116 ft 502 kts
2026-05-04 07:46 24.25040 109.73341 38119 ft 502 kts
2026-05-04 07:47 24.31876 109.74723 38118 ft 501 kts
2026-05-04 07:49 24.59227 109.80355 38118 ft 505 kts
2026-05-04 07:49 24.66040 109.82635 38127 ft 513 kts 13°
2026-05-04 07:50 24.72588 109.85883 38131 ft 521 kts 21°
2026-05-04 07:50 24.78766 109.90041 38141 ft 527 kts 27°
2026-05-04 07:51 24.84846 109.94594 38139 ft 528 kts 28°
2026-05-04 07:51 24.90921 109.99148 38138 ft 528 kts 27°
2026-05-04 07:52 24.96983 110.03667 38116 ft 527 kts 27°
2026-05-04 07:52 25.03062 110.08193 38108 ft 527 kts 27°
2026-05-04 07:54 25.27953 110.13289 38138 ft 444 kts 316°
2026-05-04 07:55 25.32478 110.08717 38141 ft 440 kts 310°
2026-05-04 07:55 25.36910 110.04042 38151 ft 440 kts 310°
2026-05-04 07:56 25.41311 109.99403 38155 ft 440 kts 310°
2026-05-04 07:56 25.45755 109.94725 38168 ft 439 kts 310°
2026-05-04 07:57 25.50156 109.90087 38176 ft 439 kts 310°
2026-05-04 07:57 25.54562 109.85442 38177 ft 440 kts 310°
2026-05-04 07:58 25.58981 109.80780 38171 ft 440 kts 310°
2026-05-04 07:58 25.63390 109.76118 38173 ft 439 kts 310°
2026-05-04 07:59 25.67828 109.71421 38165 ft 439 kts 310°
2026-05-04 07:59 25.72498 109.67064 38151 ft 447 kts 320°
2026-05-04 08:00 25.78065 109.63810 38150 ft 459 kts 331°
2026-05-04 08:02 26.04597 109.62467 38179 ft 489 kts 354°
2026-05-04 08:02 26.11424 109.62865 38170 ft 489 kts 354°
2026-05-04 08:03 26.18211 109.63252 38168 ft 488 kts 354°
2026-05-04 08:03 26.25013 109.63640 38166 ft 487 kts 354°
2026-05-04 08:04 26.31745 109.64025 38163 ft 487 kts 354°
2026-05-04 08:04 26.38562 109.64413 38163 ft 489 kts 354°
2026-05-04 08:05 26.45341 109.64814 38178 ft 489 kts 354°
2026-05-04 08:05 26.52114 109.65218 38180 ft 487 kts 354°
2026-05-04 08:06 26.58885 109.65624 38170 ft 487 kts 354°
2026-05-04 08:06 26.65664 109.66029 38169 ft 487 kts 354°
2026-05-04 08:08 26.92833 109.67657 38139 ft 488 kts 354°
2026-05-04 08:11 27.23313 109.69498 38141 ft 487 kts 354°
2026-05-04 08:11 27.33453 109.70114 38127 ft 486 kts 354°
2026-05-04 08:12 27.40204 109.70524 38131 ft 486 kts 354°
2026-05-04 08:12 27.46907 109.70732 38130 ft 479 kts 349°
2026-05-04 08:13 27.53589 109.70500 38137 ft 478 kts 349°
2026-05-04 08:13 27.60222 109.70232 38121 ft 477 kts 348°
2026-05-04 08:14 27.66832 109.69970 38123 ft 475 kts 348°
2026-05-04 08:16 27.93239 109.68939 38119 ft 475 kts 348°
2026-05-04 08:16 27.99818 109.68684 38126 ft 472 kts 348°
2026-05-04 08:17 28.06401 109.68428 38134 ft 472 kts 348°
2026-05-04 08:17 28.12949 109.68184 38139 ft 471 kts 348°
2026-05-04 08:19 28.39206 109.67207 38141 ft 471 kts 348°
2026-05-04 08:20 28.45710 109.66964 38142 ft 471 kts 348°
2026-05-04 08:20 28.52273 109.66718 38142 ft 471 kts 348°
2026-05-04 08:21 28.58862 109.66473 38140 ft 472 kts 348°
2026-05-04 08:21 28.65417 109.66225 38135 ft 471 kts 348°
2026-05-04 08:22 28.71953 109.65980 38132 ft 472 kts 348°
2026-05-04 08:24 28.98127 109.64986 38128 ft 471 kts 348°
2026-05-04 08:24 29.04714 109.64738 38134 ft 471 kts 348°
2026-05-04 08:25 29.11222 109.64490 38146 ft 471 kts 348°
2026-05-04 08:25 29.17788 109.64241 38163 ft 471 kts 348°
2026-05-04 08:27 29.43963 109.63245 38180 ft 472 kts 348°
2026-05-04 08:28 29.50529 109.62994 38177 ft 471 kts 348°
2026-05-04 08:28 29.57082 109.62746 38180 ft 473 kts 348°
2026-05-04 08:29 29.63654 109.62498 38191 ft 474 kts 348°
2026-05-04 08:31 29.90015 109.61505 38232 ft 473 kts 348°
2026-05-04 08:33 30.16430 109.60504 38227 ft 477 kts 348°
2026-05-04 08:35 30.43146 109.61217 38197 ft 486 kts 355°
2026-05-04 08:35 30.49871 109.61845 38190 ft 485 kts 355°
2026-05-04 08:37 30.73488 109.64014 38211 ft 488 kts 355°
2026-05-04 08:38 30.80249 109.64635 38224 ft 488 kts 355°
2026-05-04 08:38 30.87036 109.65254 38205 ft 488 kts 355°
2026-05-04 08:40 31.14062 109.67722 38177 ft 488 kts 356°
2026-05-04 08:41 31.20878 109.68346 38178 ft 488 kts 356°
2026-05-04 08:41 31.27633 109.68967 38182 ft 487 kts 356°
2026-05-04 08:42 31.34345 109.69587 38190 ft 486 kts 356°
2026-05-04 08:42 31.41108 109.70212 38197 ft 486 kts 356°
2026-05-04 08:43 31.47847 109.70833 38215 ft 486 kts 357°
2026-05-04 08:43 31.54605 109.71458 38227 ft 487 kts 356°
2026-05-04 08:44 31.61326 109.72082 38232 ft 485 kts 357°
2026-05-04 08:46 31.88195 109.74580 38189 ft 485 kts 357°
2026-05-04 08:46 31.94934 109.75212 38176 ft 484 kts 358°
2026-05-04 08:47 32.01658 109.75840 38146 ft 484 kts 357°
2026-05-04 08:47 32.08366 109.76469 38152 ft 482 kts 358°
2026-05-04 08:48 32.14964 109.76415 38136 ft 470 kts 345°
2026-05-04 08:48 32.21155 109.74400 38140 ft 456 kts 331°
2026-05-04 08:49 32.26587 109.70686 38147 ft 447 kts 318°
2026-05-04 08:50 32.41261 109.52275 38176 ft 441 kts 309°
2026-05-04 08:51 32.45336 109.46910 38201 ft 441 kts 309°
2026-05-04 08:51 32.49454 109.41482 38188 ft 441 kts 309°
2026-05-04 08:52 32.53521 109.36114 38185 ft 441 kts 309°
2026-05-04 08:52 32.57614 109.30700 38158 ft 440 kts 309°
2026-05-04 08:54 32.73910 109.09084 38093 ft 439 kts 309°
2026-05-04 08:55 32.77964 109.03683 38098 ft 439 kts 309°
2026-05-04 08:55 32.82004 108.98298 38100 ft 437 kts 309°
2026-05-04 09:01 33.24337 108.41348 38155 ft 438 kts 310°
2026-05-04 09:01 33.28360 108.35892 38179 ft 438 kts 311°
2026-05-04 09:01 33.30691 108.33520 38156 ft 444 kts 327°
2026-05-04 09:02 33.33608 108.32262 38185 ft 456 kts 346°
2026-05-04 09:02 33.36778 108.32285 38183 ft 471 kts
2026-05-04 09:02 33.39970 108.33374 38204 ft 482 kts 13°
2026-05-04 09:03 33.46265 108.36215 38210 ft 485 kts 13°
2026-05-04 09:03 33.52625 108.38918 38228 ft 484 kts 12°
2026-05-04 09:04 33.59017 108.41458 38226 ft 483 kts 11°
2026-05-04 09:04 33.65412 108.43938 38232 ft 483 kts 11°
2026-05-04 09:05 33.71809 108.46400 38237 ft 482 kts 11°
2026-05-04 09:05 33.78179 108.48850 38227 ft 482 kts 11°
2026-05-04 09:06 33.84519 108.51291 38218 ft 481 kts 11°
2026-05-04 09:08 34.10012 108.61145 38139 ft 481 kts 12°
2026-05-04 09:08 34.16326 108.63596 38095 ft 479 kts 12°
2026-05-04 09:09 34.22681 108.66065 38050 ft 478 kts 12°
2026-05-04 09:09 34.28978 108.68519 38036 ft 478 kts 12°
2026-05-04 09:10 34.35309 108.70990 38018 ft 478 kts 12°
2026-05-04 09:10 34.41666 108.73475 38016 ft 478 kts 12°
2026-05-04 09:11 34.47983 108.75954 38021 ft 478 kts 13°
2026-05-04 09:11 34.54287 108.78456 38015 ft 477 kts 13°
2026-05-04 09:12 34.60603 108.80964 38045 ft 477 kts 13°
2026-05-04 09:14 34.85832 108.90875 38080 ft 476 kts 13°
2026-05-04 09:14 34.92145 108.93333 38090 ft 476 kts 13°
2026-05-04 09:15 34.98453 108.95774 38094 ft 476 kts 13°
2026-05-04 09:15 35.04736 108.98197 38103 ft 476 kts 13°
2026-05-04 09:17 35.33141 109.09115 38126 ft 475 kts 12°
2026-05-04 09:18 35.39425 109.11508 38126 ft 474 kts 12°
2026-05-04 09:18 35.45718 109.13895 38107 ft 474 kts 12°
2026-05-04 09:19 35.52028 109.16292 38099 ft 474 kts 12°
2026-05-04 09:19 35.58322 109.18668 38095 ft 473 kts 12°
2026-05-04 09:20 35.64592 109.21035 38099 ft 473 kts 12°
2026-05-04 09:20 35.70897 109.23408 38105 ft 473 kts 12°
2026-05-04 09:21 35.77184 109.25769 38101 ft 473 kts 12°
2026-05-04 09:21 35.83472 109.28127 38112 ft 472 kts 12°
2026-05-04 09:22 35.89731 109.30469 38118 ft 472 kts 12°
2026-05-04 09:22 35.96006 109.32812 38123 ft 472 kts 12°
2026-05-04 09:23 36.02289 109.35144 38129 ft 472 kts 12°
2026-05-04 09:23 36.08563 109.37464 38147 ft 471 kts 12°
2026-05-04 09:25 36.33615 109.46699 38131 ft 471 kts 12°
2026-05-04 09:26 36.39897 109.48998 38137 ft 472 kts 12°
2026-05-04 09:26 36.46190 109.51294 38121 ft 471 kts 12°
2026-05-04 09:27 36.52477 109.53589 38116 ft 471 kts 12°
2026-05-04 09:27 36.58758 109.55873 38123 ft 471 kts 12°
2026-05-04 09:28 36.65044 109.58164 38135 ft 470 kts 12°
2026-05-04 09:28 36.71292 109.60422 38121 ft 471 kts 12°
2026-05-04 09:29 36.77592 109.62693 38108 ft 471 kts 12°
2026-05-04 09:29 36.83904 109.64964 38108 ft 471 kts 12°
2026-05-04 09:30 36.90200 109.67226 38102 ft 472 kts 12°
2026-05-04 09:30 36.96485 109.69474 38092 ft 471 kts 12°
2026-05-04 09:31 37.02778 109.71725 38087 ft 471 kts 12°
2026-05-04 09:31 37.09072 109.73978 38096 ft 472 kts 12°
2026-05-04 09:32 37.15371 109.76225 38085 ft 472 kts 12°
2026-05-04 09:34 37.40602 109.85147 38106 ft 471 kts 12°
2026-05-04 09:34 37.46907 109.87356 38090 ft 471 kts 12°
2026-05-04 09:35 37.53182 109.89543 38094 ft 471 kts 12°
2026-05-04 09:35 37.59506 109.91744 38098 ft 471 kts 12°
2026-05-04 09:37 37.84737 110.00532 38053 ft 470 kts 12°
2026-05-04 09:38 37.91002 110.02704 38051 ft 470 kts 12°
2026-05-04 09:38 37.97310 110.04888 38058 ft 470 kts 12°
2026-05-04 09:39 38.03607 110.07066 38065 ft 470 kts 12°
2026-05-04 09:39 38.09911 110.09229 38063 ft 469 kts 12°
2026-05-04 09:40 38.16236 110.11393 38070 ft 469 kts 11°
2026-05-04 09:40 38.22488 110.13547 38077 ft 469 kts 11°
2026-05-04 09:42 38.47592 110.22215 38075 ft 467 kts 11°
2026-05-04 09:43 38.53862 110.24379 38075 ft 466 kts 11°
2026-05-04 09:43 38.60104 110.26527 38074 ft 465 kts 11°
2026-05-04 09:44 38.66339 110.28662 38079 ft 465 kts 11°
2026-05-04 09:46 38.91315 110.37225 38071 ft 463 kts 11°
2026-05-04 09:46 38.97526 110.39354 38069 ft 463 kts 11°
2026-05-04 09:47 39.03728 110.41474 38067 ft 462 kts 11°
2026-05-04 09:49 39.28518 110.49977 38087 ft 462 kts 11°
2026-05-04 09:51 39.50220 110.57372 38099 ft 461 kts 11°
2026-05-04 09:51 39.56399 110.59477 38093 ft 460 kts 11°
2026-05-04 09:52 39.62572 110.61587 38092 ft 460 kts 11°
2026-05-04 09:52 39.68760 110.63705 38084 ft 460 kts 11°